SCP
0 0 0 0 0 0 0 0 0 0 0 0 0 0 0 0 0 0 0 0 0 0 0 0 0 0 0 0 0 -0 -0 0 0
0 0 0 0 0 0 0 0 0 0 0 0 0 0 0 0 0 0 0 0 0 0 0 0 0 0 0 0 0 0 0 -0 -0
0 0 0 0 0 0 0 0 0 0 0 0 0 0 0 0 0 0 0 0 0 0 0 0 0 0 0 0 0 0 0 0 0
0 0 0 0 0 0 0 0 0 0 0 0 0 0 0 0 0 0 0 0 0 0 0 0 0 0 0 0 0 0 0 0 0
0 0 0 0 0 0 0 0 0 0 0 0 0 0 0 0 0 0 0 0 0 0 0 0 0 0 0 0 0 0 0 0 0
0 0 0 0 0 0 0 0 0 0 0 0 0 0 0 0 0 0 0 0 0 0 0 0 0 0 0 0 0 0 0 0 0
0 0 0 0 0 0 0 0 0 0 0 0 0 0 0 0 0 0 0 0 0 0 0 0 0 0 0 0 0 0 0 0 0
0 0 0 0 0 0 0 0 0 0 0 0 0 0 0 0 0 0 0 0 0 0 0 0 0 0 0 0 0 0 0 0 0
0 0 0 0 0 0 0 0 0 0 0 0 0 0 0 0 0 0 0 0 0 0 0 0 0 0 0 0 0 0 0 0 0
0 0 0 0 0 0 0 0 0 0 0 0 0 0 0 0 0 0 0 0 0 0 0 0 0 0 0 0 0 0 0 0 0
0 0 0 0 0 0 0 0 0 0 0 0 0 0 0 0 0 0 0 0 0 0 0 0 0 0 0 0 0 0 0 0 0
0 0 0 0 0 0 0 0 0 0 0 0 0 0 0 0 0 0 0 0 0 0 0 0 0 0 0 0 0 0 0 0 0
0 0 0 0 0 0 0 0 0 0 0 0 0 0 0 0 0 0 0 0 0 0 0 0 0 0 0 0 0 0 0 0 0
0 0 0 0 0 0 0 0 0 0 0 0 0 0 0 0 0 0 0 0 0 0 0 0 0 0 0 0 0 0 0 0 0
0 0 0 0 0 0 0 0 0 0 0 0 0 0 0 0 0 0 0 0 0 0 0 0 0 0 0 0 0 0 0 0 0
0 0 0 0 0 0 0 0 0 0 0 0 0 0 0 0 0 0 0 0 0 0 0 0 0 0 0 0 0 0 0 0 0
0 0 0 0 0 0 0 0 0 0 0 0 0 0 0 0 0 0 0 0 0 0 0 0 0 0 0 0 0 0 0 0 0
0 0 0 0 0 0 0 0 0 0 0 0 0 0 0 0 0 0 0 0 0 0 0 0 0 0 0 0 0 0 0 0 0
0 0 0 0 0 0 0 0 0 0 0 0 0 0 0 0 0 0 0 0 0 0 0 0 0 0 0 0 0 0 0 0 0
0 0 0 0 0 0 0 0 0 0 0 0 0 0 0 0 0 0 0 0 0 0 0 0 0 0 0 0 0 0 0 0 0
Wind_Speed_500mb
30 30 30 29 28 28 28 28 27 26 23 21 20 22 22 21 19 18 18 18 20 24 23 19 20 24 25 24 23 24 20 19 18
28 29 31 32 31 31 31 32 33 33 32 32 30 29 28 27 25 23 22 21 22 24 28 28 28 29 29 27 25 24 24 21 19
28 27 27 27 28 29 30 32 32 33 34 35 35 36 35 32 28 28 27 24 25 28 29 31 33 33 32 33 29 25 23 23 22
27 27 27 28 28 28 30 30 30 29 29 31 33 35 37 37 35 32 30 29 29 30 32 32 33 35 37 34 34 30 25 24 24
25 25 25 26 26 26 27 28 29 29 29 28 28 29 31 33 34 34 35 35 34 33 33 34 36 37 37 39 36 35 33 32 31
24 25 25 26 26 27 29 30 31 32 32 33 33 33 32 31 30 30 31 33 36 39 40 40 37 35 33 35 37 37 39 37 36
25 25 26 27 28 29 31 32 32 33 33 33 34 35 35 36 36 35 34 32 32 34 38 38 37 36 32 32 34 34 37 39 40
24 25 25 26 27 28 29 29 30 30 30 30 30 31 32 33 35 38 41 41 40 40 41 43 42 39 40 40 40 38 39 43 44
26 26 26 26 26 26 26 26 26 27 28 29 29 30 30 30 30 31 35 38 40 42 44 46 47 48 48 49 50 51 48 47 45
26 26 25 25 24 23 22 22 21 21 21 23 24 25 26 27 28 28 28 28 30 33 37 41 46 49 52 53 53 54 54 54 54
25 24 24 25 25 25 25 25 24 24 24 24 25 26 26 25 25 25 26 26 26 29 30 32 34 35 38 40 43 47 49 50 54
25 26 25 25 25 25 25 24 26 26 26 27 26 26 25 21 18 16 17 19 21 24 26 27 30 30 31 32 38 41 43 45 49
27 27 27 27 27 27 28 28 24 24 23 23 21 19 18 16 14 12 13 16 20 23 25 24 24 25 27 30 32 28 25 34 43
24 24 25 26 28 29 29 30 32 31 28 28 22 19 15 14 14 15 16 18 20 21 22 23 23 25 27 25 27 30 26 24 24
23 24 27 29 30 31 31 33 33 34 32 28 24 17 14 13 13 14 17 21 22 23 22 22 21 21 22 23 23 22 20 21 23
26 26 27 28 28 29 30 31 32 31 32 25 23 13 13 13 14 21 25 28 27 29 29 28 26 25 25 25 25 24 20 15 16
24 25 27 28 29 31 32 34 34 34 34 32 24 6 16 21 23 31 31 21 26 33 34 33 31 31 31 31 32 30 27 23 14
26 27 28 30 30 31 32 32 33 33 32 32 20 11 8 33 21 22 25 25 30 37 36 34 33 35 38 38 36 33 28 25 25
27 29 30 31 32 33 33 33 33 32 31 30 27 25 26 13 17 18 22 31 28 37 31 33 31 31 31 33 34 33 30 28 28
30 32 34 35 36 36 36 35 34 33 32 30 30 29 29 29 23 42 31 41 26 25 36 31 25 27 29 34 34 34 33 30 27
Wind_Direction_500mb
290 289 289 288 285 283 281 280 281 284 285 287 286 282 281 282 282 280 278 283 277 275 282 293 276 278 294 306 310 310 303 303 303
297 294 289 288 288 286 283 279 278 279 281 280 282 285 283 283 279 276 272 271 274 276 277 278 281 285 284 290 299 304 304 300 291
301 300 298 297 296 293 291 288 287 283 280 280 279 279 280 283 281 276 273 268 267 272 275 276 271 275 277 279 287 292 292 297 295
308 302 299 297 297 296 295 295 296 294 291 286 280 279 279 279 277 273 272 269 266 268 272 271 274 272 275 276 275 282 287 289 291
315 310 307 307 306 306 304 303 302 302 300 298 295 291 288 286 282 276 272 273 273 271 276 277 275 279 272 274 274 272 279 287 286
320 319 317 314 310 307 305 303 301 299 297 296 294 291 290 289 287 284 279 275 275 277 277 280 285 282 279 273 270 270 275 278 282
327 323 319 316 313 311 308 305 303 301 299 295 292 290 287 283 279 276 275 274 272 274 278 282 280 280 282 284 282 278 278 276 276
332 329 326 324 321 318 313 309 305 303 300 298 296 293 290 286 281 277 275 274 273 272 275 278 282 280 276 277 280 283 282 279 278
333 333 333 333 331 330 327 321 316 311 306 303 302 300 297 295 291 286 282 279 276 273 272 271 273 274 277 278 281 280 278 276 280
340 341 341 340 339 336 334 332 330 324 317 310 306 301 299 295 293 291 291 291 288 284 280 280 277 278 280 280 279 279 278 277 274
340 340 339 337 333 331 329 328 329 328 325 320 318 314 309 305 299 294 292 292 294 292 292 290 289 287 286 285 284 280 276 271 270
337 337 339 338 337 335 332 332 330 330 328 324 318 312 308 306 304 298 298 297 296 296 297 299 299 298 297 294 291 289 284 278 274
340 339 340 340 339 337 338 336 338 331 327 324 314 303 295 299 302 302 300 299 300 300 300 301 303 305 301 298 291 294 315 304 286
339 336 336 338 341 339 338 338 336 338 342 339 330 319 302 293 293 295 303 310 314 315 314 311 308 304 304 313 306 300 304 316 313
330 333 338 341 342 343 341 342 344 343 346 346 337 317 297 286 289 301 313 317 317 314 311 310 312 316 315 315 315 322 320 310 330
331 334 337 338 339 338 339 340 340 340 342 344 337 295 274 269 285 296 306 311 316 319 315 312 310 309 311 312 312 312 317 321 336
324 327 330 332 335 336 339 341 343 345 346 349 345 312 283 277 296 290 294 295 315 317 311 308 308 309 312 314 312 308 308 297 288
320 322 324 327 328 330 333 336 338 339 342 343 346 329 317 316 301 299 298 294 308 314 310 305 304 305 309 312 313 314 308 301 292
314 314 315 316 317 320 322 325 328 331 334 334 331 321 308 311 306 309 300 297 305 307 307 306 305 302 311 320 323 322 317 306 295
311 310 307 308 308 309 311 314 316 319 322 323 322 317 313 305 293 305 302 305 317 306 312 311 317 318 323 323 326 326 322 316 308
Wind_Speed_850mb
30 30 30 29 28 28 28 28 27 26 23 21 20 22 22 21 19 18 18 18 20 24 23 19 20 24 25 24 23 24 20 19 18
28 29 31 32 31 31 31 32 33 33 32 32 30 29 28 27 25 23 22 21 22 24 28 28 28 29 29 27 25 24 24 21 19
28 27 27 27 28 29 30 32 32 33 34 35 35 36 35 32 28 28 27 24 25 28 29 31 33 33 32 33 29 25 23 23 22
27 27 27 28 28 28 30 30 30 29 29 31 33 35 37 37 35 32 30 29 29 30 32 32 33 35 37 34 34 30 25 24 24
25 25 25 26 26 26 27 28 29 29 29 28 28 29 31 33 34 34 35 35 34 33 33 34 36 37 37 39 36 35 33 32 31
24 25 25 26 26 27 29 30 31 32 32 33 33 33 32 31 30 30 31 33 36 39 40 40 37 35 33 35 37 37 39 37 36
25 25 26 27 28 29 31 32 32 33 33 33 34 35 35 36 36 35 34 32 32 34 38 38 37 36 32 32 34 34 37 39 40
24 25 25 26 27 28 29 29 30 30 30 30 30 31 32 33 35 38 41 41 40 40 41 43 42 39 40 40 40 38 39 43 44
26 26 26 26 26 26 26 26 26 27 28 29 29 30 30 30 30 31 35 38 40 42 44 46 47 48 48 49 50 51 48 47 45
26 26 25 25 24 23 22 22 21 21 21 23 24 25 26 27 28 28 28 28 30 33 37 41 46 49 52 53 53 54 54 54 54
25 24 24 25 25 25 25 25 24 24 24 24 25 26 26 25 25 25 26 26 26 29 30 32 34 35 38 40 43 47 49 50 54
25 26 25 25 25 25 25 24 26 26 26 27 26 26 25 21 18 16 17 19 21 24 26 27 30 30 31 32 38 41 43 45 49
27 27 27 27 27 27 28 28 24 24 23 23 21 19 18 16 14 12 13 16 20 23 25 24 24 25 27 30 32 28 25 34 43
24 24 25 26 28 29 29 30 32 31 28 28 22 19 15 14 14 15 16 18 20 21 22 23 23 25 27 25 27 30 26 24 24
23 24 27 29 30 31 31 33 33 34 32 28 24 17 14 13 13 14 17 21 22 23 22 22 21 21 22 23 23 22 20 21 23
26 26 27 28 28 29 30 31 32 31 32 25 23 13 13 13 14 21 25 28 27 29 29 28 26 25 25 25 25 24 20 15 16
24 25 27 28 29 31 32 34 34 34 34 32 24 6 16 21 23 31 31 21 26 33 34 33 31 31 31 31 32 30 27 23 14
26 27 28 30 30 31 32 32 33 33 32 32 20 11 8 33 21 22 25 25 30 37 36 34 33 35 38 38 36 33 28 25 25
27 29 30 31 32 33 33 33 33 32 31 30 27 25 26 13 17 18 22 31 28 37 31 33 31 31 31 33 34 33 30 28 28
30 32 34 35 36 36 36 35 34 33 32 30 30 29 29 29 23 42 31 41 26 25 36 31 25 27 29 34 34 34 33 30 27
Wind_Direction_850mb
290 289 289 288 285 283 281 280 281 284 285 287 286 282 281 282 282 280 278 283 277 275 282 293 276 278 294 306 310 310 303 303 303
297 294 289 288 288 286 283 279 278 279 281 280 282 285 283 283 279 276 272 271 274 276 277 278 281 285 284 290 299 304 304 300 291
301 300 298 297 296 293 291 288 287 283 280 280 279 279 280 283 281 276 273 268 267 272 275 276 271 275 277 279 287 292 292 297 295
308 302 299 297 297 296 295 295 296 294 291 286 280 279 279 279 277 273 272 269 266 268 272 271 274 272 275 276 275 282 287 289 291
315 310 307 307 306 306 304 303 302 302 300 298 295 291 288 286 282 276 272 273 273 271 276 277 275 279 272 274 274 272 279 287 286
320 319 317 314 310 307 305 303 301 299 297 296 294 291 290 289 287 284 279 275 275 277 277 280 285 282 279 273 270 270 275 278 282
327 323 319 316 313 311 308 305 303 301 299 295 292 290 287 283 279 276 275 274 272 274 278 282 280 280 282 284 282 278 278 276 276
332 329 326 324 321 318 313 309 305 303 300 298 296 293 290 286 281 277 275 274 273 272 275 278 282 280 276 277 280 283 282 279 278
333 333 333 333 331 330 327 321 316 311 306 303 302 300 297 295 291 286 282 279 276 273 272 271 273 274 277 278 281 280 278 276 280
340 341 341 340 339 336 334 332 330 324 317 310 306 301 299 295 293 291 291 291 288 284 280 280 277 278 280 280 279 279 278 277 274
340 340 339 337 333 331 329 328 329 328 325 320 318 314 309 305 299 294 292 292 294 292 292 290 289 287 286 285 284 280 276 271 270
337 337 339 338 337 335 332 332 330 330 328 324 318 312 308 306 304 298 298 297 296 296 297 299 299 298 297 294 291 289 284 278 274
340 339 340 340 339 337 338 336 338 331 327 324 314 303 295 299 302 302 300 299 300 300 300 301 303 305 301 298 291 294 315 304 286
339 336 336 338 341 339 338 338 336 338 342 339 330 319 302 293 293 295 303 310 314 315 314 311 308 304 304 313 306 300 304 316 313
330 333 338 341 342 343 341 342 344 343 346 346 337 317 297 286 289 301 313 317 317 314 311 310 312 316 315 315 315 322 320 310 330
331 334 337 338 339 338 339 340 340 340 342 344 337 295 274 269 285 296 306 311 316 319 315 312 310 309 311 312 312 312 317 321 336
324 327 330 332 335 336 339 341 343 345 346 349 345 312 283 277 296 290 294 295 315 317 311 308 308 309 312 314 312 308 308 297 288
320 322 324 327 328 330 333 336 338 339 342 343 346 329 317 316 301 299 298 294 308 314 310 305 304 305 309 312 313 314 308 301 292
314 314 315 316 317 320 322 325 328 331 334 334 331 321 308 311 306 309 300 297 305 307 307 306 305 302 311 320 323 322 317 306 295
311 310 307 308 308 309 311 314 316 319 322 323 322 317 313 305 293 305 302 305 317 306 312 311 317 318 323 323 326 326 322 316 308